Regional Weather Roundup
Issued by NWS Spokane, WA

Home | Current Version | Previous Version | Text Only | Print | Product List | Glossary On
Versions: 1 2 3 4 5 6 7 8 9 10 11 12 13 14 15 16 17 18 19 20 21 22 23 24 25 26 27 28 29 30 31 32 33 34 35 36 37 38 39 40 41 42 43 44 45 46 47 48 49 50
000
NZUS01 KOTX 221810
RWROTX
EASTERN WASHINGTON/NORTHERN IDAHO ROUNDUP
NATIONAL WEATHER SERVICE, SPOKANE WA
1100 AM PDT MON SEP 22 2014

Note: "fair" indicated few or no clouds below 12,000 feet with no
significant weather and/or obstructions to visibility.

...NORTHEAST WASHINGTON AND NORTHERN IDAHO PANHANDLE...

CITY           SKY/WX    TMP DP  RH WIND       PRES   REMARKS
SPOKANE INTL   PTSUNNY   73  44  35 SW5       29.96S
SPOKANE DOWNTO MOSUNNY   73  47  39 CALM      29.96S
COEUR D ALENE  MOSUNNY   70  48  46 S8        29.96S
DEER PARK      MOSUNNY   68  47  46 S5        29.96S
SANDPOINT      MOSUNNY   68  50  52 CALM      29.96S

...SOUTHEAST WASHINGTON AND SOUTHERN IDAHO PANHANDLE...

CITY           SKY/WX    TMP DP  RH WIND       PRES   REMARKS
WALLA WALLA    MOSUNNY   81  49  32 S10       29.94F
PULLMAN/MOSCOW PTSUNNY   75  44  33 VRB6      30.00R
LEWISTON       CLOUDY    70  47  43 N3        29.94S
LOWELL           N/A     67  52  58 CALM      29.98F

...COLUMBIA BASIN...

CITY           SKY/WX    TMP DP  RH WIND       PRES   REMARKS
EPHRATA        PTSUNNY   73  45  36 NE3       29.89R
MOSES LAKE     PTSUNNY   73  50  44 S7        29.90R
TRI CITIES     PTSUNNY   79  54  41 W14       29.89S
HERMISTON      PTSUNNY   81  51  35 W18       29.91S
PENDLETON      MOSUNNY   80  47  31 W14G21    29.94F

...EAST SLOPES CASCADES...

CITY           SKY/WX    TMP DP  RH WIND       PRES   REMARKS
THE DALLES     CLOUDY    73  53  49 W9        29.94S
YAKIMA         CLOUDY    70  52  52 S3        29.90F
ELLENSBURG     CLOUDY    71  56  58 NW16      29.92F
STAMPEDE PASS  FOG       54  52  93 SW5       30.04  VSB 1/2
WENATCHEE      LGT RAIN  69  51  52 CALM      29.90R
OMAK           PTSUNNY   72  43  35 CALM      29.89F

...SOUTHERN BRITISH COLUMBIA...

CITY           SKY/WX    TMP DP  RH WIND       PRES   REMARKS
PENTICTON      CLOUDY    66  52  59 NE5       29.88F
CRANBROOK      PTSUNNY   63  48  59 VRB2      29.98F

...WESTERN MONTANA...

CITY           SKY/WX    TMP DP  RH WIND       PRES   REMARKS
MISSOULA       MOSUNNY   69  42  37 CALM      30.00F

...NEIGHBORING CITIES...

CITY           SKY/WX    TMP DP  RH WIND       PRES   REMARKS
SEATTLE        PTSUNNY   64  56  75 S8        30.01S
CALGARY        PTSUNNY   79  41  25 W12G21    29.87F



USA.gov is the U.S. government's official web portal to all federal, state and local government web resources and services.